TimeEST,TemperatureF,Dew PointF,Humidity,Sea Level PressureIn,VisibilityMPH,Wind Direction,Wind SpeedMPH,Gust SpeedMPH,PrecipitationIn,Events,Conditions,WindDirDegrees,DateUTC
12:13 AM,38.7,29.7,70,30.15,10.0,South,3.5,-,N/A,,Overcast,170,2012-11-08 05:13:00
12:34 AM,38.7,29.3,69,30.15,10.0,SSE,4.6,-,N/A,,Overcast,160,2012-11-08 05:34:00
12:53 AM,38.7,29.5,70,30.14,10.0,South,6.9,-,N/A,,Overcast,170,2012-11-08 05:53:00
1:13 AM,38.5,29.7,71,30.15,10.0,South,8.1,-,N/A,,Overcast,170,2012-11-08 06:13:00
1:34 AM,38.5,29.3,70,30.14,10.0,South,5.8,-,N/A,,Overcast,170,2012-11-08 06:34:00
2:13 AM,38.5,28.9,69,30.14,10.0,South,6.9,-,N/A,,Overcast,180,2012-11-08 07:13:00
2:34 AM,38.3,29.1,70,30.15,10.0,South,8.1,-,N/A,,Overcast,170,2012-11-08 07:34:00
2:53 AM,38.3,29.1,70,30.15,10.0,SSE,8.1,-,N/A,,Overcast,160,2012-11-08 07:53:00
3:13 AM,37.9,29.1,71,30.15,10.0,South,5.8,-,N/A,,Overcast,170,2012-11-08 08:13:00
3:34 AM,37.8,29.1,71,30.15,10.0,South,6.9,-,N/A,,Overcast,170,2012-11-08 08:34:00
3:53 AM,37.9,28.6,69,30.14,10.0,South,5.8,-,N/A,,Overcast,170,2012-11-08 08:53:00
4:13 AM,37.9,29.3,71,30.15,10.0,SSE,5.8,-,N/A,,Overcast,160,2012-11-08 09:13:00
4:34 AM,37.9,29.7,72,30.15,10.0,SSE,4.6,-,N/A,,Overcast,160,2012-11-08 09:34:00
4:53 AM,37.6,29.3,72,30.15,10.0,SSE,6.9,-,N/A,,Overcast,160,2012-11-08 09:53:00
5:13 AM,37.4,29.7,74,30.15,10.0,SSE,5.8,-,N/A,,Overcast,160,2012-11-08 10:13:00
5:34 AM,37.4,30.2,75,30.15,10.0,South,4.6,-,N/A,,Overcast,170,2012-11-08 10:34:00
5:53 AM,37.4,30.4,76,30.15,10.0,SSE,3.5,-,N/A,,Overcast,150,2012-11-08 10:53:00
6:13 AM,37.2,30.6,77,30.15,10.0,SSE,5.8,-,N/A,,Overcast,160,2012-11-08 11:13:00
6:53 AM,37.4,29.8,74,30.14,10.0,South,8.1,-,N/A,,Overcast,170,2012-11-08 11:53:00
7:13 AM,37.4,29.7,74,30.14,10.0,South,10.4,-,N/A,,Overcast,180,2012-11-08 12:13:00
7:53 AM,37.4,29.8,74,30.14,10.0,South,6.9,-,N/A,,Overcast,170,2012-11-08 12:53:00
8:13 AM,37.4,30.2,75,30.14,10.0,SSE,8.1,-,N/A,,Overcast,160,2012-11-08 13:13:00
8:33 AM,37.8,30.2,74,30.15,10.0,South,9.2,-,N/A,,Overcast,180,2012-11-08 13:33:00
8:53 AM,37.9,30.4,74,30.15,10.0,South,6.9,-,N/A,,Overcast,190,2012-11-08 13:53:00
9:13 AM,38.3,30.6,74,30.15,10.0,SSE,6.9,-,N/A,,Overcast,160,2012-11-08 14:13:00
9:33 AM,38.7,30.9,74,30.14,10.0,South,10.4,-,N/A,,Overcast,180,2012-11-08 14:33:00
9:53 AM,38.5,31.1,75,30.14,10.0,SSW,6.9,-,N/A,,Overcast,200,2012-11-08 14:53:00
10:13 AM,38.8,31.6,75,30.14,10.0,South,6.9,-,N/A,,Overcast,170,2012-11-08 15:13:00
10:33 AM,39.4,32.0,75,30.14,10.0,South,5.8,-,N/A,,Overcast,190,2012-11-08 15:33:00
10:53 AM,39.4,31.8,74,30.13,10.0,South,6.9,-,N/A,,Overcast,180,2012-11-08 15:53:00
11:13 AM,40.1,31.8,72,30.13,10.0,South,8.1,-,N/A,,Overcast,180,2012-11-08 16:13:00
11:33 AM,40.5,31.8,71,30.12,10.0,South,6.9,-,N/A,,Overcast,190,2012-11-08 16:33:00
11:53 AM,39.9,32.5,75,30.11,10.0,SSW,5.8,-,N/A,Rain,Light Rain,200,2012-11-08 16:53:00
12:14 PM,41.0,33.1,73,30.11,10.0,South,4.6,-,N/A,,Overcast,180,2012-11-08 17:14:00
12:33 PM,41.2,33.1,73,30.10,10.0,South,5.8,-,N/A,,Overcast,170,2012-11-08 17:33:00
12:53 PM,42.1,33.3,71,30.10,10.0,South,5.8,-,N/A,,Overcast,180,2012-11-08 17:53:00
1:14 PM,42.8,33.8,70,30.09,10.0,South,4.6,-,N/A,,Overcast,170,2012-11-08 18:14:00
1:33 PM,43.7,34.3,70,30.08,10.0,South,3.5,-,N/A,,Overcast,180,2012-11-08 18:33:00
1:53 PM,45.7,35.6,68,30.07,10.0,SW,6.9,-,N/A,,Overcast,230,2012-11-08 18:53:00
2:14 PM,45.7,35.6,68,30.07,10.0,SW,9.2,-,N/A,,Mostly Cloudy,230,2012-11-08 19:14:00
2:33 PM,46.2,35.8,67,30.07,10.0,SW,12.7,-,N/A,,Mostly Cloudy,230,2012-11-08 19:33:00
2:53 PM,44.8,35.6,70,30.06,10.0,SW,11.5,18.4,N/A,,Mostly Cloudy,230,2012-11-08 19:53:00
3:14 PM,44.6,35.4,70,30.06,10.0,SW,6.9,18.4,N/A,,Overcast,220,2012-11-08 20:14:00
3:33 PM,44.6,35.2,70,30.06,10.0,SW,10.4,-,N/A,,Overcast,220,2012-11-08 20:33:00
3:53 PM,44.4,34.5,68,30.05,10.0,SSW,6.9,17.3,N/A,,Overcast,210,2012-11-08 20:53:00
4:14 PM,44.6,33.8,66,30.05,10.0,SSW,10.4,17.3,N/A,,Overcast,210,2012-11-08 21:14:00
4:33 PM,44.1,33.4,66,30.04,10.0,SSW,9.2,17.3,N/A,,Overcast,210,2012-11-08 21:33:00
4:53 PM,43.9,34.2,69,30.04,10.0,SSW,9.2,-,N/A,,Overcast,200,2012-11-08 21:53:00
5:14 PM,43.7,34.0,69,30.05,10.0,SSW,9.2,-,N/A,,Overcast,200,2012-11-08 22:14:00
5:33 PM,43.3,34.0,70,30.04,10.0,South,9.2,16.1,N/A,,Overcast,190,2012-11-08 22:33:00
5:53 PM,43.2,34.2,71,30.03,10.0,South,10.4,-,N/A,,Overcast,190,2012-11-08 22:53:00
6:14 PM,43.0,34.2,71,30.04,10.0,South,9.2,-,N/A,,Overcast,190,2012-11-08 23:14:00
6:33 PM,43.0,34.5,72,30.04,10.0,South,8.1,16.1,N/A,,Overcast,190,2012-11-08 23:33:00
6:53 PM,42.8,34.7,73,30.03,10.0,South,10.4,18.4,N/A,,Overcast,190,2012-11-08 23:53:00
7:13 PM,42.8,34.7,73,30.03,10.0,SSW,11.5,18.4,N/A,,Overcast,200,2012-11-09 00:13:00
7:33 PM,42.8,34.7,73,30.03,10.0,SSW,8.1,-,N/A,,Overcast,200,2012-11-09 00:33:00
7:53 PM,42.6,34.9,74,30.03,10.0,SSW,9.2,-,N/A,,Overcast,210,2012-11-09 00:53:00
8:13 PM,42.4,35.2,76,30.02,10.0,SSW,9.2,-,N/A,,Overcast,200,2012-11-09 01:13:00
8:33 PM,42.4,35.2,76,30.02,10.0,SSW,10.4,-,N/A,,Overcast,200,2012-11-09 01:33:00
8:53 PM,42.8,35.6,76,30.02,10.0,SW,6.9,-,N/A,,Overcast,220,2012-11-09 01:53:00
9:13 PM,43.3,35.6,74,30.03,10.0,SW,12.7,20.7,N/A,,Overcast,230,2012-11-09 02:13:00
9:33 PM,43.9,36.0,74,30.03,10.0,SW,13.8,24.2,N/A,,Overcast,230,2012-11-09 02:33:00
9:53 PM,43.9,36.7,76,30.02,10.0,WSW,13.8,20.7,N/A,,Overcast,240,2012-11-09 02:53:00
10:13 PM,44.1,37.4,77,30.02,10.0,WSW,12.7,25.3,N/A,,Overcast,240,2012-11-09 03:13:00
10:33 PM,44.4,36.7,74,30.02,10.0,WSW,12.7,25.3,N/A,,Overcast,250,2012-11-09 03:33:00
10:53 PM,44.6,37.8,77,30.02,10.0,WSW,17.3,26.5,N/A,,Overcast,240,2012-11-09 03:53:00
11:13 PM,44.2,38.5,80,30.02,10.0,WSW,11.5,25.3,N/A,,Overcast,250,2012-11-09 04:13:00
11:33 PM,44.6,38.5,79,30.02,10.0,WSW,11.5,21.9,N/A,,Overcast,250,2012-11-09 04:33:00
11:53 PM,44.6,38.7,80,30.02,10.0,WSW,13.8,21.9,N/A,,Mostly Cloudy,250,2012-11-09 04:53:00